Погода в Куртлыкуле

Россия / Республика Башкортостан     55°42′56″N   56°21′51″E
темп.,
°C
ветер,
м/с
пор.,
м/с
влажн.,
%
обл.,
%
осадки,
мм/ч
давл.,
гПа
погр.,
м
4 марта, чт
чт423:00−4юз4897100 1.4 1000312
02:00−5юз5996100 0.8 999324
05:00−8з61095100 1.4 1000329
08:00−11зюз4996100 0.2 1000251
11:00−9юз5895100 0.4 1001369
14:00−6ююз71092100 0.1 1000551
17:00−5ююз71293100 0.4 998653
20:00−5ююз91595100 1.3 996807
5 марта, пт
пт523:00−4ююз111895100 3.6 993887
02:00−3зюз81684100 1.3 991842
05:00−6зюз8169072 1.3 994650
08:00−7зюз71493100 0.1 996546
11:00−7зюз51092100 0.1 999447
14:00−6зюз5890100 0.0 1000470
17:00−7з4790100 0.0 1003456
20:00−13з349330 0.0 100564
6 марта, сб
сб623:00−15з339215 0.0 100923
02:00−16юз34930 0.0 101035
05:00−17ююз44950 0.0 101169
08:00−18ююз47949 0.0 1011117
11:00−13ююз589449 0.1 1011279
14:00−9юз5893100 0.2 1010449
17:00−8юз4692100 0.4 1009631
20:00−12з2397100 0.2 101029
7 марта, вс
вс723:00−15зсз229993 0.3 101021
02:00−17ссз129993 0.1 100920
05:00−18сз229996 0.1 101020
08:00−21сз2310098 0.1 101020
11:00−18зсз349799 0.1 1011240
14:00−15з3592100 0.0 1012405
17:00−15юз4691100 0.1 1012457
20:00−19ю479862 0.0 101391
8 марта, пн
пн823:00−19ю6129631 0.0 1013229
02:00−17ю8149396 0.0 1010386
05:00−16ю9169498 0.2 1007449
08:00−14ю91593100 0.9 1002625
11:00−10ю101692100 1.9 1001867
14:00−7з10167498 1.6 10011570
17:00−7юз6118049 1.6 1004782
20:00−11ю48870 0.0 1005113